Regional Weather Roundup
Issued by NWS

Home | Current Version | Previous Version | Graphics & Text | Print | Product List | Glossary On
Versions: 1 2 3 4 5 6 7 8 9 10 11 12 13 14 15 16 17 18 19 20 21 22 23 24 25 26 27 28 29 30 31 32 33 34 35 36 37 38 39 40 41 42 43 44 45 46 47 48 49 50
102
ASUS45 KCYS 181510
RWRWY

WYOMING REGIONAL WEATHER ROUNDUP
NATIONAL WEATHER SERVICE CHEYENNE WY
800 AM MST WED JAN 18 2017

NOTE:  "FAIR" INDICATES FEW OR NO CLOUDS BELOW 12,000 FEET
WITH NO SIGNIFICANT WEATHER AND/OR OBSTRUCTIONS TO VISIBILITY.

WYZ001-181600-
YELLOWSTONE NATIONAL PARK

CITY           SKY/WX    TMP DP  RH WIND       PRES   REMARKS
LK YELLOWSTONE   N/A    -10 -13  86 CALM      30.05S
W YELLOWSTONE  NOT AVBL

$$
WYZ002>013-054>058-071-098>099-181600-
NORTHERN WYOMING

CITY           SKY/WX    TMP DP  RH WIND       PRES   REMARKS
JACKSON        PTCLDY    -9 -13  84 N6        30.11S WCI -23
CODY           FAIR      13   8  81 CALM      29.84F
GREYBULL       FAIR      -5 -10  79 NW7       29.91F WCI -19
WORLAND        FAIR       4   1  88 W7        29.89F WCI  -8
SHERIDAN       FAIR      17  11  77 SW9       29.74F WCI   6
BUFFALO        FAIR      30  14  51 W3        29.77F
GILLETTE       FAIR      24  16  71 E3        29.81S
HULETT         FAIR      32  19  59 SW9       29.79F WCI  24
NEWCASTLE      FAIR      23  14  68 E7        29.87S WCI  15

$$
WYZ014>020-022>026-101>103-181600-
CENTRAL WYOMING

CITY           SKY/WX    TMP DP  RH WIND       PRES   REMARKS
BIG PINEY      FAIR     -13 -16  86 N6        30.07F WCI -27
PINEDALE       FAIR     -17 -22  76 W6        30.07F WCI -31
DUBOIS         NOT AVBL
LANDER         FAIR       6   3  87 SE3       29.97S
RIVERTON       FAIR       1  -2  87 CALM      29.98F
CASPER         FAIR      30  16  56 SW26G44   29.90F WCI  16
DOUGLAS        FAIR      13   9  84 SE3       29.89F

$$
WYZ021-027>030-104>119-181600-
SOUTHERN WYOMING

CITY           SKY/WX    TMP DP  RH WIND       PRES   REMARKS
EVANSTON       FAIR      16   5  62 S6        30.06F WCI   7
ROCK SPRINGS   FAIR      -4  -8  83 S6        30.08S FOG     WCI -16
RAWLINS        FAIR       2  -3  80 NW3       30.06S
LARAMIE        FAIR       6   1  80 N6        29.98F WCI  -4
CHEYENNE       FAIR      29  10  45 VRB6      29.92R WCI  23
TORRINGTON     FAIR      26  14  60 NW7       29.88S WCI  18

$$




USA.gov is the U.S. government's official web portal to all federal, state and local government web resources and services.